Regional Weather Roundup
Issued by NWS Cleveland, OH

Home | Current Version | Previous Version | Graphics & Text | Print | Product List | Glossary On
Versions: 1 2 3 4 5 6 7 8 9 10 11 12 13 14 15 16 17 18 19 20 21 22 23 24 25 26 27 28 29 30 31 32 33 34 35 36 37 38 39 40 41 42 43 44 45 46 47 48 49 50
000
ASUS41 KCLE 290110
RWRCLE
OHIO REGIONAL WEATHER ROUNDUP
NATIONAL WEATHER SERVICE WILMINGTON, OH
900 PM EDT SUN MAY 28 2017

NOTE: "FAIR" INDICATES FEW OR NO CLOUDS BELOW 12,000 FEET WITH NO
SIGNIFICANT WEATHER AND/OR OBSTRUCTIONS TO VISIBILITY.

OHZ001>008-015>018-024>027-034-035-043-044-290200-
   NORTHWEST OHIO

CITY           SKY/WX    TMP DP  RH WIND       PRES   REMARKS
DEFIANCE       LGT RAIN  64  62  93 S9        29.73R
FINDLAY        CLOUDY    62  58  86 S8        29.74R
TOLEDO EXPRESS FAIR      63  62  97 S6        29.70R
TOLEDO EXEC    MOCLDY    62  60  93 SE8       29.72R
LIMA           TSTM      62  60  93 S6        29.75S
$$

OHZ009>014-019>023-028>033-038-089-290200-
   NORTHEAST OHIO

CITY           SKY/WX    TMP DP  RH WIND       PRES   REMARKS
CLE-HOPKINS    MOCLDY    66  62  87 SE8       29.73F
CLE-LAKEFRONT  MOCLDY    65  61  87 S6        29.71F
CUY CO. ARPT   CLOUDY    64  63  94 S8        29.72F
LORAIN-ELYRIA  FAIR      64  58  80 E5        29.73F
ASHTABULA      LGT RAIN  64  63  96 S6        29.77R
AKRON-CANTON   MOCLDY    67  58  72 NE9       29.75R
WOOSTER        CLOUDY    70  63  78 N8        29.75R
MANSFIELD      CLOUDY    61  55  81 NW18G43   29.79R
YOUNGSTOWN     TSTM      63  59  87 N5        29.78R FOG
$$

OHZ042-051>053-060>062-070>072-077>081-290200-
  SOUTHWEST OHIO

CITY           SKY/WX    TMP DP  RH WIND       PRES   REMARKS
CINC-COVINGTON MOCLDY    69  64  84 SW7       29.82R
CINC-LUNKEN    LGT RAIN  69  65  86 S6        29.82R
HAMILTON       LGT RAIN  71  64  78 SW5       29.81R
DAYTON         MOCLDY    70  62  76 SW16      29.79R
WRIGHT-PAT AFB CLOUDY    71  64  79 SW13      29.78R
DAYTON GENERAL LGT RAIN  70  62  76 SW8       29.80R
WILMINGTON     FAIR      68  63  84 SW13      29.80R
$$

OHZ036-037-039>041-045>050-054>059-063>069-073>076-082>088-290200-
  CENTRAL AND SOUTHEAST OHIO

CITY           SKY/WX    TMP DP  RH WIND       PRES   REMARKS
COLUMBUS       CLOUDY    74  61  63 SW10      29.76S
OSU AIRPORT    MOCLDY    72  62  71 SW13      29.76S
BOLTON FIELD   MOCLDY    70  62  75 SW10      29.78S
RICKENBACK AFB CLOUDY    72  62  70 SW8       29.78R
NEWARK         CLOUDY    73  58  59 W13G22    29.76R
MARION         CLOUDY    63  59  87 NW10      29.79R THUNDER
LANCASTER      CLOUDY    74  61  63 SW8       29.79R
ZANESVILLE     MOCLDY    74  62  66 SW8       29.76S
NEW PHILLY     FAIR      73  64  73 CALM      29.74F
$$



USA.gov is the U.S. government's official web portal to all federal, state and local government web resources and services.